Location: Lac Lasalle
(46.0398°N, 74.1576°W)
Time: 00:03:05
(UTC-05:00)

SEEDS - Pass Details

Date: 22 December 2019
Orbit: 586 x 603 km, 97.5° (Epoch: 20 January)

Event Time Altitude Azimuth Distance (km) Brightness Sun altitude
Rises 05:37:00 0° 15° (NNE) 2,862 ? -19.7°
Reaches altitude 10° 05:39:12 10° 19° (NNE) 1,956 ? -19.3°
Maximum altitude 05:43:25 61° 101° (E) 689 ? -18.6°
Drops below altitude 10° 05:47:36 10° 182° (S) 1,943 ? -17.9°
Sets 05:49:47 0° 185° (S) 2,841 ? -17.5°
